owner,sensor,date,latitude,longitude,vertical_datum,wind_speed,wind_to_direction,wind_speed_of_gust,qcFlag 
TCOON,ioos:station:TCOON:003:1,2009-02-04T16:00:00Z,26.8015,-97.4706,0.0,3.2,70.0,4.7,'11111222,11111222,11111222' 
TCOON,ioos:station:TCOON:003:1,2009-02-04T17:00:00Z,26.8015,-97.4706,0.0,2.5,97.0,4.0,'11111222,11111222,11111222' 
TCOON,ioos:station:TCOON:003:1,2009-02-04T18:00:00Z,26.8015,-97.4706,0.0,6.0,76.0,7.6,'11111222,11111222,11111222' 
TCOON,ioos:station:TCOON:003:1,2009-02-04T19:00:00Z,26.8015,-97.4706,0.0,7.1,76.0,11.3,'11111222,11111222,11111222' 
TCOON,ioos:station:TCOON:003:1,2009-02-04T20:00:00Z,26.8015,-97.4706,0.0,7.7,81.0,10.0,'11111222,11111222,11111222' 
TCOON,ioos:station:TCOON:003:1,2009-02-04T21:00:00Z,26.8015,-97.4706,0.0,8.0,80.0,9.5,'11111222,11111222,11111222' 
TCOON,ioos:station:TCOON:003:1,2009-02-04T22:00:00Z,26.8015,-97.4706,0.0,7.3,71.0,9.1,'11111222,11111222,11111222' 
TCOON,ioos:station:TCOON:003:1,2009-02-04T23:00:00Z,26.8015,-97.4706,0.0,5.8,76.0,7.2,'11111222,11111222,11111222' 
TCOON,ioos:station:TCOON:003:1,2009-02-05T00:00:00Z,26.8015,-97.4706,0.0,4.3,76.0,5.3,'11111222,11111222,11111222' 
TCOON,ioos:station:TCOON:003:1,2009-02-05T01:00:00Z,26.8015,-97.4706,0.0,3.5,90.0,4.2,'11111222,11111222,11111222' 
TCOON,ioos:station:TCOON:003:1,2009-02-05T02:00:00Z,26.8015,-97.4706,0.0,3.2,145.0,3.9,'11111222,11111222,11111222' 
TCOON,ioos:station:TCOON:003:1,2009-02-05T03:00:00Z,26.8015,-97.4706,0.0,3.9,141.0,4.6,'11111222,11111222,11111222' 
TCOON,ioos:station:TCOON:003:1,2009-02-05T04:00:00Z,26.8015,-97.4706,0.0,4.4,147.0,4.9,'11111222,11111222,11111222' 
TCOON,ioos:station:TCOON:003:1,2009-02-05T05:00:00Z,26.8015,-97.4706,0.0,4.7,154.0,5.7,'11111222,11111222,11111222' 
TCOON,ioos:station:TCOON:003:1,2009-02-05T06:00:00Z,26.8015,-97.4706,0.0,3.9,152.0,4.3,'11111222,11111222,11111222' 
TCOON,ioos:station:TCOON:003:1,2009-02-05T07:00:00Z,26.8015,-97.4706,0.0,3.8,164.0,4.5,'11111222,11111222,11111222' 
TCOON,ioos:station:TCOON:003:1,2009-02-05T08:00:00Z,26.8015,-97.4706,0.0,4.0,159.0,4.7,'11111222,11111222,11111222' 
TCOON,ioos:station:TCOON:003:1,2009-02-05T09:00:00Z,26.8015,-97.4706,0.0,3.2,186.0,3.7,'11111222,11111222,11111222' 
TCOON,ioos:station:TCOON:003:1,2009-02-05T10:00:00Z,26.8015,-97.4706,0.0,2.5,155.0,2.8,'11111222,11111222,11111222' 
TCOON,ioos:station:TCOON:003:1,2009-02-05T11:00:00Z,26.8015,-97.4706,0.0,2.0,172.0,2.2,'11111222,11111222,11111222' 
TCOON,ioos:station:TCOON:003:1,2009-02-05T12:00:00Z,26.8015,-97.4706,0.0,1.2,204.0,1.3,'11111222,11111222,11111222' 
TCOON,ioos:station:TCOON:003:1,2009-02-05T13:00:00Z,26.8015,-97.4706,0.0,0.6,193.0,0.7,'11111222,11111222,11111222' 
TCOON,ioos:station:TCOON:003:1,2009-02-05T14:00:00Z,26.8015,-97.4706,0.0,2.7,153.0,3.1,'11111222,11111222,11111222' 
TCOON,ioos:station:TCOON:003:1,2009-02-05T15:00:00Z,26.8015,-97.4706,0.0,4.5,176.0,5.3,'11111222,11111222,11111222' 
TCOON,ioos:station:TCOON:003:1,2009-02-05T16:00:00Z,26.8015,-97.4706,0.0,5.3,169.0,6.7,'11111222,11111222,11111222' 
TCOON,ioos:station:TCOON:003:1,2009-02-05T17:00:00Z,26.8015,-97.4706,0.0,7.7,181.0,8.9,'11111222,11111222,11111222' 
TCOON,ioos:station:TCOON:003:1,2009-02-05T18:00:00Z,26.8015,-97.4706,0.0,8.2,180.0,9.4,'11111222,11111222,11111222' 
TCOON,ioos:station:TCOON:003:1,2009-02-05T19:00:00Z,26.8015,-97.4706,0.0,8.1,180.0,9.2,'11111222,11111222,11111222' 
TCOON,ioos:station:TCOON:003:1,2009-02-05T20:00:00Z,26.8015,-97.4706,0.0,8.1,173.0,9.9,'11111222,11111222,11111222' 
TCOON,ioos:station:TCOON:003:1,2009-02-05T21:00:00Z,26.8015,-97.4706,0.0,9.2,153.0,11.0,'11111222,11111222,11111222' 
TCOON,ioos:station:TCOON:003:1,2009-02-05T22:00:00Z,26.8015,-97.4706,0.0,8.9,149.0,11.8,'11111222,11111222,11111222' 
TCOON,ioos:station:TCOON:003:1,2009-02-05T23:00:00Z,26.8015,-97.4706,0.0,9.3,146.0,10.5,'11111222,11111222,11111222' 
TCOON,ioos:station:TCOON:003:1,2009-02-06T00:00:00Z,26.8015,-97.4706,0.0,6.1,148.0,7.0,'11111222,11111222,11111222' 
TCOON,ioos:station:TCOON:003:1,2009-02-06T01:00:00Z,26.8015,-97.4706,0.0,6.3,145.0,7.4,'11111222,11111222,11111222' 
TCOON,ioos:station:TCOON:003:1,2009-02-06T02:00:00Z,26.8015,-97.4706,0.0,5.9,147.0,7.2,'11111222,11111222,11111222' 
TCOON,ioos:station:TCOON:003:1,2009-02-06T03:00:00Z,26.8015,-97.4706,0.0,6.3,155.0,7.3,'11111222,11111222,11111222' 
TCOON,ioos:station:TCOON:003:1,2009-02-06T04:00:00Z,26.8015,-97.4706,0.0,6.8,152.0,8.1,'11111222,11111222,11111222' 
TCOON,ioos:station:TCOON:003:1,2009-02-06T05:00:00Z,26.8015,-97.4706,0.0,7.8,158.0,9.2,'11111222,11111222,11111222' 
TCOON,ioos:station:TCOON:003:1,2009-02-06T06:00:00Z,26.8015,-97.4706,0.0,7.7,158.0,8.8,'11111222,11111222,11111222' 
TCOON,ioos:station:TCOON:003:1,2009-02-06T07:00:00Z,26.8015,-97.4706,0.0,6.7,162.0,7.6,'11111222,11111222,11111222' 
TCOON,ioos:station:TCOON:003:1,2009-02-06T08:00:00Z,26.8015,-97.4706,0.0,6.7,157.0,8.0,'11111222,11111222,11111222' 
TCOON,ioos:station:TCOON:003:1,2009-02-06T09:00:00Z,26.8015,-97.4706,0.0,6.0,162.0,7.4,'11111222,11111222,11111222' 
TCOON,ioos:station:TCOON:003:1,2009-02-06T10:00:00Z,26.8015,-97.4706,0.0,6.3,154.0,7.5,'11111222,11111222,11111222' 
TCOON,ioos:station:TCOON:003:1,2009-02-06T11:00:00Z,26.8015,-97.4706,0.0,6.5,145.0,7.8,'11111222,11111222,11111222' 
TCOON,ioos:station:TCOON:003:1,2009-02-06T12:00:00Z,26.8015,-97.4706,0.0,6.9,144.0,8.1,'11111222,11111222,11111222' 
TCOON,ioos:station:TCOON:003:1,2009-02-06T13:00:00Z,26.8015,-97.4706,0.0,8.4,152.0,10.3,'11111222,11111222,11111222' 
TCOON,ioos:station:TCOON:003:1,2009-02-06T14:00:00Z,26.8015,-97.4706,0.0,8.9,156.0,10.5,'11111222,11111222,11111222' 
TCOON,ioos:station:TCOON:003:1,2009-02-06T15:00:00Z,26.8015,-97.4706,0.0,9.9,163.0,11.5,'11111222,11111222,11111222' 
TCOON,ioos:station:TCOON:003:1,2009-02-06T16:00:00Z,26.8015,-97.4706,0.0,11.6,163.0,13.6,'11111222,11111222,11111222' 
TCOON,ioos:station:TCOON:003:1,2009-02-06T17:00:00Z,26.8015,-97.4706,0.0,12.2,169.0,14.3,'11111222,11111222,11111222' 
TCOON,ioos:station:TCOON:003:1,2009-02-06T18:00:00Z,26.8015,-97.4706,0.0,11.2,166.0,12.8,'11111222,11111222,11111222' 
TCOON,ioos:station:TCOON:003:1,2009-02-06T19:00:00Z,26.8015,-97.4706,0.0,12.0,167.0,14.6,'11111222,11111222,11111222' 
TCOON,ioos:station:TCOON:003:1,2009-02-06T20:00:00Z,26.8015,-97.4706,0.0,11.9,167.0,14.1,'11111222,11111222,11111222' 
TCOON,ioos:station:TCOON:003:1,2009-02-06T21:00:00Z,26.8015,-97.4706,0.0,11.3,165.0,15.2,'11111222,11111222,11111222' 
TCOON,ioos:station:TCOON:003:1,2009-02-06T22:00:00Z,26.8015,-97.4706,0.0,12.3,157.0,14.6,'11111222,11111222,11111222' 
TCOON,ioos:station:TCOON:003:1,2009-02-06T23:00:00Z,26.8015,-97.4706,0.0,11.5,158.0,14.2,'11111222,11111222,11111222' 
TCOON,ioos:station:TCOON:003:1,2009-02-07T00:00:00Z,26.8015,-97.4706,0.0,11.2,155.0,13.5,'11111222,11111222,11111222' 
TCOON,ioos:station:TCOON:003:1,2009-02-07T01:00:00Z,26.8015,-97.4706,0.0,10.1,155.0,11.9,'11111222,11111222,11111222' 
TCOON,ioos:station:TCOON:003:1,2009-02-07T02:00:00Z,26.8015,-97.4706,0.0,9.7,153.0,11.5,'11111222,11111222,11111222' 
TCOON,ioos:station:TCOON:003:1,2009-02-07T03:00:00Z,26.8015,-97.4706,0.0,9.4,157.0,11.1,'11111222,11111222,11111222' 
TCOON,ioos:station:TCOON:003:1,2009-02-07T04:00:00Z,26.8015,-97.4706,0.0,10.0,158.0,11.6,'11111222,11111222,11111222' 
TCOON,ioos:station:TCOON:003:1,2009-02-07T05:00:00Z,26.8015,-97.4706,0.0,10.5,162.0,12.7,'11111222,11111222,11111222' 
TCOON,ioos:station:TCOON:003:1,2009-02-07T06:00:00Z,26.8015,-97.4706,0.0,10.7,161.0,12.6,'11111222,11111222,11111222' 
TCOON,ioos:station:TCOON:003:1,2009-02-07T07:00:00Z,26.8015,-97.4706,0.0,9.7,159.0,11.4,'11111222,11111222,11111222' 
TCOON,ioos:station:TCOON:003:1,2009-02-07T08:00:00Z,26.8015,-97.4706,0.0,9.7,158.0,11.1,'11111222,11111222,11111222' 
TCOON,ioos:station:TCOON:003:1,2009-02-07T09:00:00Z,26.8015,-97.4706,0.0,8.5,161.0,10.1,'11111222,11111222,11111222' 
TCOON,ioos:station:TCOON:003:1,2009-02-07T10:00:00Z,26.8015,-97.4706,0.0,8.4,159.0,9.9,'11111222,11111222,11111222' 
TCOON,ioos:station:TCOON:003:1,2009-02-07T11:00:00Z,26.8015,-97.4706,0.0,7.0,154.0,8.0,'11111222,11111222,11111222' 
TCOON,ioos:station:TCOON:003:1,2009-02-07T12:00:00Z,26.8015,-97.4706,0.0,8.2,153.0,9.8,'11111222,11111222,11111222' 
TCOON,ioos:station:TCOON:003:1,2009-02-07T13:00:00Z,26.8015,-97.4706,0.0,9.6,152.0,11.5,'11111222,11111222,11111222' 
TCOON,ioos:station:TCOON:003:1,2009-02-07T14:00:00Z,26.8015,-97.4706,0.0,10.0,154.0,13.1,'11111222,11111222,11111222' 
TCOON,ioos:station:TCOON:003:1,2009-02-07T15:00:00Z,26.8015,-97.4706,0.0,11.9,160.0,13.4,'11111222,11111222,11111222' 
TCOON,ioos:station:TCOON:003:1,2009-02-07T16:00:00Z,26.8015,-97.4706,0.0,10.2,165.0,12.0,'11111222,11111222,11111222' 
TCOON,ioos:station:TCOON:003:1,2009-02-07T17:00:00Z,26.8015,-97.4706,0.0,11.5,162.0,13.6,'11111222,11111222,11111222' 
TCOON,ioos:station:TCOON:003:1,2009-02-07T18:00:00Z,26.8015,-97.4706,0.0,12.9,164.0,15.6,'11111222,11111222,11111222' 
TCOON,ioos:station:TCOON:003:1,2009-02-07T19:00:00Z,26.8015,-97.4706,0.0,11.9,167.0,13.9,'11111222,11111222,11111222' 
TCOON,ioos:station:TCOON:003:1,2009-02-07T20:00:00Z,26.8015,-97.4706,0.0,11.0,170.0,13.3,'11111222,11111222,11111222' 
TCOON,ioos:station:TCOON:003:1,2009-02-07T21:00:00Z,26.8015,-97.4706,0.0,11.7,173.0,13.4,'11111222,11111222,11111222' 
TCOON,ioos:station:TCOON:003:1,2009-02-07T22:00:00Z,26.8015,-97.4706,0.0,10.4,168.0,11.8,'11111222,11111222,11111222' 
TCOON,ioos:station:TCOON:003:1,2009-02-07T23:00:00Z,26.8015,-97.4706,0.0,9.1,145.0,10.6,'11111222,11111222,11111222' 
TCOON,ioos:station:TCOON:003:1,2009-02-08T00:00:00Z,26.8015,-97.4706,0.0,7.9,153.0,9.1,'11111222,11111222,11111222' 
TCOON,ioos:station:TCOON:003:1,2009-02-08T01:00:00Z,26.8015,-97.4706,0.0,8.2,152.0,9.8,'11111222,11111222,11111222' 
TCOON,ioos:station:TCOON:003:1,2009-02-08T02:00:00Z,26.8015,-97.4706,0.0,7.0,152.0,8.1,'11111222,11111222,11111222' 
TCOON,ioos:station:TCOON:003:1,2009-02-08T03:00:00Z,26.8015,-97.4706,0.0,7.4,148.0,8.9,'11111222,11111222,11111222' 
TCOON,ioos:station:TCOON:003:1,2009-02-08T04:00:00Z,26.8015,-97.4706,0.0,7.3,158.0,8.6,'11111222,11111222,11111222' 
TCOON,ioos:station:TCOON:003:1,2009-02-08T05:00:00Z,26.8015,-97.4706,0.0,7.3,148.0,8.8,'11111222,11111222,11111222' 
TCOON,ioos:station:TCOON:003:1,2009-02-08T06:00:00Z,26.8015,-97.4706,0.0,8.7,162.0,10.8,'11111222,11111222,11111222' 
TCOON,ioos:station:TCOON:003:1,2009-02-08T07:00:00Z,26.8015,-97.4706,0.0,8.5,159.0,9.8,'11111222,11111222,11111222' 
TCOON,ioos:station:TCOON:003:1,2009-02-08T08:00:00Z,26.8015,-97.4706,0.0,7.2,154.0,8.2,'11111222,11111222,11111222' 
TCOON,ioos:station:TCOON:003:1,2009-02-08T09:00:00Z,26.8015,-97.4706,0.0,6.6,144.0,7.9,'11111222,11111222,11111222' 
TCOON,ioos:station:TCOON:003:1,2009-02-08T10:00:00Z,26.8015,-97.4706,0.0,6.8,144.0,8.0,'11111222,11111222,11111222' 
TCOON,ioos:station:TCOON:003:1,2009-02-08T11:00:00Z,26.8015,-97.4706,0.0,8.3,144.0,10.0,'11111222,11111222,11111222' 
TCOON,ioos:station:TCOON:003:1,2009-02-08T12:00:00Z,26.8015,-97.4706,0.0,9.3,147.0,10.7,'11111222,11111222,11111222' 
TCOON,ioos:station:TCOON:003:1,2009-02-08T13:00:00Z,26.8015,-97.4706,0.0,9.3,154.0,11.0,'11111222,11111222,11111222' 
TCOON,ioos:station:TCOON:003:1,2009-02-08T14:00:00Z,26.8015,-97.4706,0.0,9.5,158.0,10.8,'11111222,11111222,11111222' 
TCOON,ioos:station:TCOON:003:1,2009-02-08T15:00:00Z,26.8015,-97.4706,0.0,12.3,159.0,14.5,'11111222,11111222,11111222' 
TCOON,ioos:station:TCOON:003:1,2009-02-08T16:00:00Z,26.8015,-97.4706,0.0,10.9,158.0,13.1,'11111222,11111222,11111222' 
TCOON,ioos:station:TCOON:003:1,2009-02-08T17:00:00Z,26.8015,-97.4706,0.0,11.3,158.0,13.8,'11111222,11111222,11111222' 
TCOON,ioos:station:TCOON:003:1,2009-02-08T18:00:00Z,26.8015,-97.4706,0.0,12.7,157.0,14.8,'11111222,11111222,11111222' 
TCOON,ioos:station:TCOON:003:1,2009-02-08T19:00:00Z,26.8015,-97.4706,0.0,11.6,154.0,14.0,'11111222,11111222,11111222' 
TCOON,ioos:station:TCOON:003:1,2009-02-08T20:00:00Z,26.8015,-97.4706,0.0,11.4,157.0,13.8,'11111222,11111222,11111222' 
TCOON,ioos:station:TCOON:003:1,2009-02-08T21:00:00Z,26.8015,-97.4706,0.0,13.4,156.0,15.5,'11111222,11111222,11111222' 
TCOON,ioos:station:TCOON:003:1,2009-02-08T22:00:00Z,26.8015,-97.4706,0.0,14.1,156.0,16.1,'11111222,11111222,11111222' 
TCOON,ioos:station:TCOON:003:1,2009-02-08T23:00:00Z,26.8015,-97.4706,0.0,12.3,150.0,15.5,'11111222,11111222,11111222' 
TCOON,ioos:station:TCOON:003:1,2009-02-09T00:00:00Z,26.8015,-97.4706,0.0,10.4,159.0,12.7,'11111222,11111222,11111222' 
TCOON,ioos:station:TCOON:003:1,2009-02-09T01:00:00Z,26.8015,-97.4706,0.0,12.1,154.0,14.6,'11111222,11111222,11111222' 
TCOON,ioos:station:TCOON:003:1,2009-02-09T02:00:00Z,26.8015,-97.4706,0.0,12.5,155.0,14.6,'11111222,11111222,11111222' 
TCOON,ioos:station:TCOON:003:1,2009-02-09T03:00:00Z,26.8015,-97.4706,0.0,12.4,155.0,14.8,'11111222,11111222,11111222' 
TCOON,ioos:station:TCOON:003:1,2009-02-09T04:00:00Z,26.8015,-97.4706,0.0,14.2,158.0,17.5,'11111222,11111222,11111222' 
TCOON,ioos:station:TCOON:003:1,2009-02-09T05:00:00Z,26.8015,-97.4706,0.0,10.5,171.0,14.1,'11111222,11111222,11111222' 
TCOON,ioos:station:TCOON:003:1,2009-02-09T06:00:00Z,26.8015,-97.4706,0.0,11.2,162.0,13.6,'11111222,11111222,11111222' 
TCOON,ioos:station:TCOON:003:1,2009-02-09T07:00:00Z,26.8015,-97.4706,0.0,12.6,163.0,15.2,'11111222,11111222,11111222' 
TCOON,ioos:station:TCOON:003:1,2009-02-09T08:00:00Z,26.8015,-97.4706,0.0,12.5,163.0,14.8,'11111222,11111222,11111222' 
TCOON,ioos:station:TCOON:003:1,2009-02-09T09:00:00Z,26.8015,-97.4706,0.0,10.9,169.0,13.4,'11111222,11111222,11111222' 
TCOON,ioos:station:TCOON:003:1,2009-02-09T10:00:00Z,26.8015,-97.4706,0.0,9.5,172.0,11.2,'11111222,11111222,11111222' 
TCOON,ioos:station:TCOON:003:1,2009-02-09T11:00:00Z,26.8015,-97.4706,0.0,8.3,176.0,9.6,'11111222,11111222,11111222' 
TCOON,ioos:station:TCOON:003:1,2009-02-09T12:00:00Z,26.8015,-97.4706,0.0,7.8,182.0,9.2,'11111222,11111222,11111222' 
TCOON,ioos:station:TCOON:003:1,2009-02-09T13:00:00Z,26.8015,-97.4706,0.0,5.6,170.0,6.6,'11111222,11111222,11111222' 
TCOON,ioos:station:TCOON:003:1,2009-02-09T14:00:00Z,26.8015,-97.4706,0.0,5.2,167.0,6.0,'11111222,11111222,11111222' 
TCOON,ioos:station:TCOON:003:1,2009-02-09T15:00:00Z,26.8015,-97.4706,0.0,5.3,159.0,6.4,'11111222,11111222,11111222' 
TCOON,ioos:station:TCOON:003:1,2009-02-09T16:00:00Z,26.8015,-97.4706,0.0,7.0,164.0,7.7,'11111222,11111222,11111222' 
TCOON,ioos:station:TCOON:003:1,2009-02-09T17:00:00Z,26.8015,-97.4706,0.0,6.6,157.0,7.6,'11111222,11111222,11111222' 
TCOON,ioos:station:TCOON:003:1,2009-02-09T18:00:00Z,26.8015,-97.4706,0.0,7.9,159.0,9.2,'11111222,11111222,11111222' 
TCOON,ioos:station:TCOON:003:1,2009-02-09T19:00:00Z,26.8015,-97.4706,0.0,8.9,163.0,10.6,'11111222,11111222,11111222' 
TCOON,ioos:station:TCOON:003:1,2009-02-09T20:00:00Z,26.8015,-97.4706,0.0,9.5,163.0,11.1,'11111222,11111222,11111222' 
TCOON,ioos:station:TCOON:003:1,2009-02-09T21:00:00Z,26.8015,-97.4706,0.0,10.2,159.0,12.0,'11111222,11111222,11111222' 
TCOON,ioos:station:TCOON:003:1,2009-02-09T22:00:00Z,26.8015,-97.4706,0.0,8.5,155.0,10.2,'11111222,11111222,11111222' 
TCOON,ioos:station:TCOON:003:1,2009-02-09T23:00:00Z,26.8015,-97.4706,0.0,8.7,153.0,10.0,'11111222,11111222,11111222' 
TCOON,ioos:station:TCOON:003:1,2009-02-10T00:00:00Z,26.8015,-97.4706,0.0,8.6,152.0,9.8,'11111222,11111222,11111222' 
TCOON,ioos:station:TCOON:003:1,2009-02-10T01:00:00Z,26.8015,-97.4706,0.0,9.7,159.0,11.8,'11111222,11111222,11111222' 
TCOON,ioos:station:TCOON:003:1,2009-02-10T02:00:00Z,26.8015,-97.4706,0.0,8.4,165.0,10.0,'11111222,11111222,11111222' 
TCOON,ioos:station:TCOON:003:1,2009-02-10T03:00:00Z,26.8015,-97.4706,0.0,7.1,173.0,8.0,'11111222,11111222,11111222' 
TCOON,ioos:station:TCOON:003:1,2009-02-10T04:00:00Z,26.8015,-97.4706,0.0,6.7,171.0,7.9,'11111222,11111222,11111222' 
TCOON,ioos:station:TCOON:003:1,2009-02-10T05:00:00Z,26.8015,-97.4706,0.0,6.9,171.0,8.6,'11111222,11111222,11111222' 
TCOON,ioos:station:TCOON:003:1,2009-02-10T06:00:00Z,26.8015,-97.4706,0.0,9.8,169.0,11.1,'11111222,11111222,11111222' 
TCOON,ioos:station:TCOON:003:1,2009-02-10T07:00:00Z,26.8015,-97.4706,0.0,8.1,171.0,9.7,'11111222,11111222,11111222' 
TCOON,ioos:station:TCOON:003:1,2009-02-10T08:00:00Z,26.8015,-97.4706,0.0,8.2,178.0,9.6,'11111222,11111222,11111222' 
TCOON,ioos:station:TCOON:003:1,2009-02-10T09:00:00Z,26.8015,-97.4706,0.0,8.5,170.0,9.7,'11111222,11111222,11111222' 
TCOON,ioos:station:TCOON:003:1,2009-02-10T10:00:00Z,26.8015,-97.4706,0.0,8.9,170.0,10.3,'11111222,11111222,11111222' 
TCOON,ioos:station:TCOON:003:1,2009-02-10T11:00:00Z,26.8015,-97.4706,0.0,8.6,163.0,10.3,'11111222,11111222,11111222' 
TCOON,ioos:station:TCOON:003:1,2009-02-10T12:00:00Z,26.8015,-97.4706,0.0,8.8,155.0,10.2,'11111222,11111222,11111222' 
TCOON,ioos:station:TCOON:003:1,2009-02-10T13:00:00Z,26.8015,-97.4706,0.0,9.4,167.0,11.5,'11111222,11111222,11111222' 
TCOON,ioos:station:TCOON:003:1,2009-02-10T14:00:00Z,26.8015,-97.4706,0.0,5.9,171.0,6.7,'11111222,11111222,11111222' 
TCOON,ioos:station:TCOON:003:1,2009-02-10T15:00:00Z,26.8015,-97.4706,0.0,7.8,166.0,10.0,'11111222,11111222,11111222' 
TCOON,ioos:station:TCOON:003:1,2009-02-10T16:00:00Z,26.8015,-97.4706,0.0,9.3,175.0,10.8,'11111222,11111222,11111222' 
TCOON,ioos:station:TCOON:003:1,2009-02-10T17:00:00Z,26.8015,-97.4706,0.0,11.1,168.0,13.5,'11111222,11111222,11111222' 
TCOON,ioos:station:TCOON:003:1,2009-02-10T18:00:00Z,26.8015,-97.4706,0.0,11.3,170.0,13.2,'11111222,11111222,11111222' 
TCOON,ioos:station:TCOON:003:1,2009-02-10T19:00:00Z,26.8015,-97.4706,0.0,11.9,167.0,14.4,'11111222,11111222,11111222' 
TCOON,ioos:station:TCOON:003:1,2009-02-10T20:00:00Z,26.8015,-97.4706,0.0,12.6,169.0,14.8,'11111222,11111222,11111222' 
TCOON,ioos:station:TCOON:003:1,2009-02-10T21:00:00Z,26.8015,-97.4706,0.0,12.9,169.0,15.3,'11111222,11111222,11111222' 
TCOON,ioos:station:TCOON:003:1,2009-02-10T22:00:00Z,26.8015,-97.4706,0.0,11.8,169.0,14.1,'11111222,11111222,11111222' 
TCOON,ioos:station:TCOON:003:1,2009-02-10T23:00:00Z,26.8015,-97.4706,0.0,13.0,173.0,15.4,'11111222,11111222,11111222' 
TCOON,ioos:station:TCOON:003:1,2009-02-11T00:00:00Z,26.8015,-97.4706,0.0,10.1,170.0,11.7,'11111222,11111222,11111222' 
TCOON,ioos:station:TCOON:003:1,2009-02-11T01:00:00Z,26.8015,-97.4706,0.0,11.6,176.0,13.3,'11111222,11111222,11111222' 
TCOON,ioos:station:TCOON:003:1,2009-02-11T02:00:00Z,26.8015,-97.4706,0.0,12.0,183.0,13.9,'11111222,11111222,11111222' 
TCOON,ioos:station:TCOON:003:1,2009-02-11T03:00:00Z,26.8015,-97.4706,0.0,13.2,184.0,15.5,'11111222,11111222,11111222' 
TCOON,ioos:station:TCOON:003:1,2009-02-11T04:00:00Z,26.8015,-97.4706,0.0,11.8,183.0,14.1,'11111222,11111222,11111222' 
TCOON,ioos:station:TCOON:003:1,2009-02-11T05:00:00Z,26.8015,-97.4706,0.0,11.8,185.0,14.3,'11111222,11111222,11111222' 
TCOON,ioos:station:TCOON:003:1,2009-02-11T06:00:00Z,26.8015,-97.4706,0.0,11.3,194.0,14.0,'11111222,11111222,11111222' 
TCOON,ioos:station:TCOON:003:1,2009-02-11T07:00:00Z,26.8015,-97.4706,0.0,11.9,360.0,15.6,'11111222,11144222,11111222' 
TCOON,ioos:station:TCOON:003:1,2009-02-11T08:00:00Z,26.8015,-97.4706,0.0,6.2,15.0,7.5,'11111222,11111222,11111222' 
TCOON,ioos:station:TCOON:003:1,2009-02-11T09:00:00Z,26.8015,-97.4706,0.0,5.1,17.0,5.7,'11111222,11111222,11111222' 
TCOON,ioos:station:TCOON:003:1,2009-02-11T10:00:00Z,26.8015,-97.4706,0.0,5.5,11.0,6.2,'11111222,11111222,11111222' 
TCOON,ioos:station:TCOON:003:1,2009-02-11T11:00:00Z,26.8015,-97.4706,0.0,5.8,24.0,6.8,'11111222,11111222,11111222' 
TCOON,ioos:station:TCOON:003:1,2009-02-11T12:00:00Z,26.8015,-97.4706,0.0,3.0,30.0,3.4,'11111222,11111222,11111222' 
TCOON,ioos:station:TCOON:003:1,2009-02-11T13:00:00Z,26.8015,-97.4706,0.0,4.4,21.0,5.2,'11111222,11111222,11111222' 
TCOON,ioos:station:TCOON:003:1,2009-02-11T14:00:00Z,26.8015,-97.4706,0.0,4.7,27.0,5.7,'11111222,11111222,11111222' 
TCOON,ioos:station:TCOON:003:1,2009-02-11T15:00:00Z,26.8015,-97.4706,0.0,11.0,1.0,12.6,'11111222,11111222,11111222' 
TCOON,ioos:station:TCOON:003:1,2009-02-11T16:00:00Z,26.8015,-97.4706,0.0,10.5,359.0,14.1,'11111222,11111222,11111222' 
TCOON,ioos:station:TCOON:003:1,2009-02-11T17:00:00Z,26.8015,-97.4706,0.0,6.2,359.0,7.4,'11111222,11111222,11111222' 
TCOON,ioos:station:TCOON:003:1,2009-02-11T18:00:00Z,26.8015,-97.4706,0.0,4.3,352.0,5.3,'11111222,11111222,11111222' 
TCOON,ioos:station:TCOON:003:1,2009-02-11T19:00:00Z,26.8015,-97.4706,0.0,3.3,350.0,4.1,'11111222,11111222,11111222' 
TCOON,ioos:station:TCOON:003:1,2009-02-11T20:00:00Z,26.8015,-97.4706,0.0,2.2,360.0,2.9,'11111222,11144222,11111222' 
TCOON,ioos:station:TCOON:003:1,2009-02-11T21:00:00Z,26.8015,-97.4706,0.0,5.5,98.0,6.4,'11111222,11111222,11111222' 
TCOON,ioos:station:TCOON:003:1,2009-02-11T22:00:00Z,26.8015,-97.4706,0.0,5.5,107.0,6.3,'11111222,11111222,11111222' 
TCOON,ioos:station:TCOON:003:1,2009-02-11T23:00:00Z,26.8015,-97.4706,0.0,5.3,147.0,6.0,'11111222,11111222,11111222' 
TCOON,ioos:station:TCOON:003:1,2009-02-12T00:00:00Z,26.8015,-97.4706,0.0,5.4,156.0,6.0,'11111222,11111222,11111222' 
TCOON,ioos:station:TCOON:003:1,2009-02-12T01:00:00Z,26.8015,-97.4706,0.0,5.4,160.0,6.3,'11111222,11111222,11111222' 
TCOON,ioos:station:TCOON:003:1,2009-02-12T02:00:00Z,26.8015,-97.4706,0.0,5.4,164.0,6.2,'11111222,11111222,11111222' 
TCOON,ioos:station:TCOON:003:1,2009-02-12T03:00:00Z,26.8015,-97.4706,0.0,6.1,163.0,6.9,'11111222,11111222,11111222' 
TCOON,ioos:station:TCOON:003:1,2009-02-12T04:00:00Z,26.8015,-97.4706,0.0,5.4,168.0,6.2,'11111222,11111222,11111222' 
TCOON,ioos:station:TCOON:003:1,2009-02-12T05:00:00Z,26.8015,-97.4706,0.0,3.0,214.0,3.6,'11111222,11111222,11111222' 
TCOON,ioos:station:TCOON:003:1,2009-02-12T06:00:00Z,26.8015,-97.4706,0.0,1.4,189.0,1.6,'11111222,11111222,11111222' 
TCOON,ioos:station:TCOON:003:1,2009-02-12T07:00:00Z,26.8015,-97.4706,0.0,1.0,22.0,1.2,'11111222,11111222,11111222' 
TCOON,ioos:station:TCOON:003:1,2009-02-12T08:00:00Z,26.8015,-97.4706,0.0,3.1,322.0,3.3,'11111222,11111222,11111222' 
TCOON,ioos:station:TCOON:003:1,2009-02-12T09:00:00Z,26.8015,-97.4706,0.0,0.6,71.0,0.8,'11111222,11111222,11111222' 
TCOON,ioos:station:TCOON:003:1,2009-02-12T10:00:00Z,26.8015,-97.4706,0.0,1.9,353.0,2.1,'11111222,11111222,11111222' 
TCOON,ioos:station:TCOON:003:1,2009-02-12T11:00:00Z,26.8015,-97.4706,0.0,1.9,347.0,2.2,'11111222,11111222,11111222' 
TCOON,ioos:station:TCOON:003:1,2009-02-12T12:00:00Z,26.8015,-97.4706,0.0,2.3,349.0,2.5,'11111222,11111222,11111222' 
TCOON,ioos:station:TCOON:003:1,2009-02-12T13:00:00Z,26.8015,-97.4706,0.0,3.1,354.0,3.5,'11111222,11111222,11111222' 
TCOON,ioos:station:TCOON:003:1,2009-02-12T14:00:00Z,26.8015,-97.4706,0.0,1.3,11.0,1.4,'11111222,11111222,11111222' 
TCOON,ioos:station:TCOON:003:1,2009-02-12T15:00:00Z,26.8015,-97.4706,0.0,1.0,344.0,1.2,'11111222,11111222,11111222' 
TCOON,ioos:station:TCOON:003:1,2009-02-12T16:00:00Z,26.8015,-97.4706,0.0,5.9,147.0,7.2,'11111222,11111222,11111222' 
TCOON,ioos:station:TCOON:003:1,2009-02-12T17:00:00Z,26.8015,-97.4706,0.0,7.0,127.0,8.3,'11111222,11111222,11111222' 
TCOON,ioos:station:TCOON:003:1,2009-02-12T18:00:00Z,26.8015,-97.4706,0.0,6.8,132.0,8.2,'11111222,11111222,11111222' 
TCOON,ioos:station:TCOON:003:1,2009-02-12T19:00:00Z,26.8015,-97.4706,0.0,5.9,130.0,7.4,'11111222,11111222,11111222' 
TCOON,ioos:station:TCOON:003:1,2009-02-12T20:00:00Z,26.8015,-97.4706,0.0,7.5,131.0,8.7,'11111222,11111222,11111222' 
TCOON,ioos:station:TCOON:003:1,2009-02-12T21:00:00Z,26.8015,-97.4706,0.0,7.8,125.0,9.6,'11111222,11111222,11111222' 
TCOON,ioos:station:TCOON:003:1,2009-02-12T22:00:00Z,26.8015,-97.4706,0.0,6.7,126.0,8.3,'11111222,11111222,11111222' 
TCOON,ioos:station:TCOON:003:1,2009-02-12T23:00:00Z,26.8015,-97.4706,0.0,5.1,118.0,6.9,'11111222,11111222,11111222' 
TCOON,ioos:station:TCOON:003:1,2009-02-13T00:00:00Z,26.8015,-97.4706,0.0,5.4,129.0,6.3,'11111222,11111222,11111222' 
TCOON,ioos:station:TCOON:003:1,2009-02-13T01:00:00Z,26.8015,-97.4706,0.0,6.8,132.0,7.9,'11111222,11111222,11111222' 
TCOON,ioos:station:TCOON:003:1,2009-02-13T02:00:00Z,26.8015,-97.4706,0.0,6.0,139.0,7.4,'11111222,11111222,11111222' 